When you browse on this site, cookies collect data to enhance your experience and personalize the content and advertising you see.
Visit our Privacy Policy to learn more. By continuing to use the site, you agree to this use of cookies and data.
  • în România
  • Lista ţărilor
  • Pe 7 zile
  • Temperatura apei
  • Hartă satelitară
  • Meteo pe hartă
  • Widget-uri
  • user-avatar
    Intrare

    Meteo pe oră la Prutz

    Astăzi, 16 Iunie, Duminică

    Timp Temperatura Precipitaţii Vânt Presiune Umiditate
    00:00 +11°C° 0.5 mm 1 m/s 634 mmHg 93%
    01:00 +9°C° 0.5 mm 0 m/s 635 mmHg 94%
    02:00 +10°C° 0.5 mm 1 m/s 635 mmHg 95%
    03:00 +10°C° 0.5 mm 1 m/s 634 mmHg 97%
    04:00 +10°C° 0.5 mm 1 m/s 634 mmHg 98%
    05:00 +11°C° 0.1 mm 1 m/s 635 mmHg 97%
    06:00 +11°C° 0.1 mm 1 m/s 635 mmHg 96%
    07:00 +10°C° 0.1 mm 2 m/s 636 mmHg 95%
    08:00 +12°C° 0.1 mm 2 m/s 636 mmHg 92%
    09:00 +12°C° 0.1 mm 2 m/s 636 mmHg 89%
    10:00 +12°C° 0.1 mm 2 m/s 636 mmHg 86%
    11:00 +14°C° 0.1 mm 2 m/s 636 mmHg 80%
    12:00 +15°C° 0.1 mm 2 m/s 637 mmHg 74%
    13:00 +16°C° 0.1 mm 2 m/s 637 mmHg 67%
    14:00 +16°C° 0.3 mm 2 m/s 637 mmHg 69%
    15:00 +16°C° 0.3 mm 2 m/s 637 mmHg 71%
    16:00 +16°C° 0.3 mm 2 m/s 637 mmHg 72%
    17:00 +15°C° 0.4 mm 2 m/s 636 mmHg 78%
    18:00 +15°C° 0.4 mm 2 m/s 636 mmHg 84%
    19:00 +14°C° 0.4 mm 2 m/s 636 mmHg 90%
    20:00 +13°C° 0.1 mm 2 m/s 636 mmHg 93%
    21:00 +12°C° 0.1 mm 1 m/s 636 mmHg 96%
    22:00 +11°C° 0.1 mm 1 m/s 636 mmHg 98%
    23:00 +10°C° 0 mm 1 m/s 636 mmHg 98%

    Mâine, 17 Iunie, Luni

    Timp Temperatura Precipitaţii Vânt Presiune Umiditate
    00:00 +9°C° 0 mm 0 m/s 636 mmHg 98%
    01:00 +9°C° 0 mm 0 m/s 636 mmHg 97%
    02:00 +9°C° 0 mm 0 m/s 635 mmHg 97%
    03:00 +8°C° 0 mm 0 m/s 635 mmHg 96%
    04:00 +7°C° 0 mm 0 m/s 634 mmHg 95%
    05:00 +9°C° 0 mm 0 m/s 635 mmHg 91%
    06:00 +11°C° 0 mm 0 m/s 636 mmHg 86%
    07:00 +12°C° 0 mm 0 m/s 637 mmHg 82%
    08:00 +16°C° 0 mm 1 m/s 637 mmHg 72%
    09:00 +19°C° 0 mm 1 m/s 638 mmHg 62%
    10:00 +21°C° 0 mm 1 m/s 638 mmHg 53%
    11:00 +21°C° 0.4 mm 1 m/s 638 mmHg 53%
    12:00 +21°C° 0.4 mm 1 m/s 638 mmHg 52%
    13:00 +22°C° 0.4 mm 1 m/s 638 mmHg 52%
    14:00 +21°C° 1.3 mm 1 m/s 637 mmHg 57%
    15:00 +21°C° 1.3 mm 1 m/s 637 mmHg 62%
    16:00 +20°C° 1.3 mm 1 m/s 636 mmHg 66%
    17:00 +19°C° 1.4 mm 1 m/s 636 mmHg 72%
    18:00 +18°C° 1.4 mm 1 m/s 636 mmHg 78%
    19:00 +18°C° 1.4 mm 1 m/s 635 mmHg 83%
    20:00 +15°C° 0.5 mm 1 m/s 635 mmHg 85%
    21:00 +13°C° 0.5 mm 0 m/s 635 mmHg 86%
    22:00 +11°C° 0.5 mm 0 m/s 635 mmHg 87%
    23:00 +12°C° 0 mm 1 m/s 634 mmHg 87%

    Poimâine, 18 Iunie, Marţi

    Timp Temperatura Precipitaţii Vânt Presiune Umiditate
    00:00 +11°C° 0 mm 1 m/s 634 mmHg 86%
    01:00 +11°C° 0 mm 1 m/s 634 mmHg 85%
    02:00 +11°C° 0 mm 1 m/s 634 mmHg 85%
    03:00 +10°C° 0 mm 1 m/s 634 mmHg 85%
    04:00 +10°C° 0 mm 1 m/s 633 mmHg 85%
    05:00 +12°C° 0 mm 1 m/s 634 mmHg 81%
    06:00 +14°C° 0 mm 1 m/s 635 mmHg 76%
    07:00 +15°C° 0 mm 0 m/s 636 mmHg 72%
    08:00 +19°C° 0.2 mm 1 m/s 636 mmHg 65%
    09:00 +20°C° 0.2 mm 1 m/s 636 mmHg 59%
    10:00 +22°C° 0.2 mm 1 m/s 637 mmHg 52%
    11:00 +22°C° 0.8 mm 1 m/s 637 mmHg 53%
    12:00 +22°C° 0.8 mm 1 m/s 636 mmHg 53%
    13:00 +23°C° 0.8 mm 1 m/s 636 mmHg 53%
    14:00 +22°C° 1.8 mm 1 m/s 636 mmHg 60%
    15:00 +20°C° 1.8 mm 2 m/s 635 mmHg 67%
    16:00 +19°C° 1.8 mm 2 m/s 635 mmHg 74%
    17:00 +18°C° 1.2 mm 1 m/s 635 mmHg 79%
    18:00 +16°C° 1.2 mm 1 m/s 634 mmHg 85%
    19:00 +15°C° 1.2 mm 1 m/s 634 mmHg 90%
    20:00 +15°C° 0.3 mm 1 m/s 634 mmHg 91%
    21:00 +14°C° 0.3 mm 1 m/s 634 mmHg 91%
    22:00 +12°C° 0.3 mm 0 m/s 635 mmHg 91%
    23:00 +12°C° 0 mm 0 m/s 634 mmHg 90%

    19 Iunie, Miercuri

    Timp Temperatura Precipitaţii Vânt Presiune Umiditate
    00:00 +11°C° 0 mm 0 m/s 634 mmHg 89%
    01:00 +12°C° 0 mm 1 m/s 634 mmHg 88%
    02:00 +11°C° 0 mm 1 m/s 633 mmHg 88%
    03:00 +10°C° 0 mm 0 m/s 633 mmHg 88%
    04:00 +9°C° 0 mm 0 m/s 633 mmHg 88%
    05:00 +11°C° 0 mm 0 m/s 633 mmHg 83%
    06:00 +13°C° 0 mm 0 m/s 634 mmHg 78%
    07:00 +15°C° 0 mm 0 m/s 635 mmHg 73%
    08:00 +17°C° 0.2 mm 0 m/s 635 mmHg 65%
    09:00 +20°C° 0.2 mm 1 m/s 636 mmHg 58%
    10:00 +22°C° 0.2 mm 1 m/s 636 mmHg 50%
    11:00 +22°C° 0.3 mm 1 m/s 636 mmHg 46%
    12:00 +23°C° 0.3 mm 1 m/s 636 mmHg 42%
    13:00 +24°C° 0.3 mm 2 m/s 636 mmHg 38%
    14:00 +23°C° 0.3 mm 2 m/s 636 mmHg 40%
    15:00 +23°C° 0.3 mm 1 m/s 635 mmHg 42%
    16:00 +22°C° 0.3 mm 1 m/s 635 mmHg 44%
    17:00 +21°C° 0.1 mm 1 m/s 635 mmHg 51%
    18:00 +20°C° 0.1 mm 1 m/s 635 mmHg 58%
    19:00 +20°C° 0.1 mm 1 m/s 634 mmHg 65%
    20:00 +16°C° 0.2 mm 1 m/s 634 mmHg 70%
    21:00 +14°C° 0.2 mm 1 m/s 633 mmHg 76%
    22:00 +11°C° 0.2 mm 0 m/s 633 mmHg 81%
    23:00 +12°C° 0 mm 1 m/s 633 mmHg 81%

    20 Iunie, Joi

    Timp Temperatura Precipitaţii Vânt Presiune Umiditate
    00:00 +12°C° 0 mm 1 m/s 633 mmHg 81%
    01:00 +11°C° 0 mm 1 m/s 633 mmHg 81%
    02:00 +11°C° 0 mm 1 m/s 633 mmHg 81%
    03:00 +11°C° 0 mm 1 m/s 633 mmHg 81%
    04:00 +11°C° 0 mm 1 m/s 633 mmHg 81%
    05:00 +13°C° 0 mm 1 m/s 633 mmHg 76%
    06:00 +14°C° 0 mm 0 m/s 634 mmHg 72%
    07:00 +15°C° 0 mm 0 m/s 635 mmHg 67%
    08:00 +18°C° 0.6 mm 1 m/s 635 mmHg 66%
    09:00 +19°C° 0.6 mm 1 m/s 636 mmHg 66%
    10:00 +20°C° 0.6 mm 1 m/s 636 mmHg 65%
    11:00 +20°C° 1.2 mm 1 m/s 636 mmHg 66%
    12:00 +20°C° 1.2 mm 1 m/s 636 mmHg 68%
    13:00 +20°C° 1.2 mm 1 m/s 636 mmHg 69%
    14:00 +20°C° 1.5 mm 1 m/s 635 mmHg 71%
    15:00 +20°C° 1.5 mm 1 m/s 635 mmHg 72%
    16:00 +20°C° 1.5 mm 1 m/s 635 mmHg 74%
    17:00 +19°C° 0.9 mm 1 m/s 635 mmHg 78%
    18:00 +18°C° 0.9 mm 1 m/s 635 mmHg 82%
    19:00 +18°C° 0.9 mm 1 m/s 635 mmHg 86%
    20:00 +15°C° 0.3 mm 1 m/s 634 mmHg 88%
    21:00 +14°C° 0.3 mm 1 m/s 634 mmHg 90%
    22:00 +11°C° 0.3 mm 0 m/s 634 mmHg 91%
    23:00 +12°C° 0 mm 1 m/s 634 mmHg 91%

    21 Iunie, Vineri

    Timp Temperatura Precipitaţii Vânt Presiune Umiditate
    00:00 +12°C° 0 mm 1 m/s 634 mmHg 91%
    01:00 +12°C° 0 mm 2 m/s 634 mmHg 90%
    02:00 +10°C° 0 mm 2 m/s 634 mmHg 91%
    03:00 +10°C° 0 mm 2 m/s 634 mmHg 91%
    04:00 +10°C° 0 mm 2 m/s 634 mmHg 92%
    05:00 +13°C° 0 mm 1 m/s 634 mmHg 89%
    06:00 +14°C° 0 mm 1 m/s 635 mmHg 87%
    07:00 +15°C° 0 mm 1 m/s 635 mmHg 84%
    08:00 +16°C° 0.2 mm 1 m/s 636 mmHg 80%
    09:00 +18°C° 0.2 mm 1 m/s 636 mmHg 75%
    10:00 +19°C° 0.2 mm 1 m/s 636 mmHg 71%
    11:00 +19°C° 0.7 mm 1 m/s 636 mmHg 73%
    12:00 +18°C° 0.7 mm 2 m/s 636 mmHg 74%
    13:00 +18°C° 0.7 mm 2 m/s 636 mmHg 76%
    14:00 +18°C° 1 mm 2 m/s 635 mmHg 77%
    15:00 +18°C° 1 mm 2 m/s 635 mmHg 79%
    16:00 +18°C° 1 mm 2 m/s 635 mmHg 80%
    17:00 +18°C° 1.3 mm 1 m/s 635 mmHg 84%
    18:00 +16°C° 1.3 mm 1 m/s 635 mmHg 88%
    19:00 +15°C° 1.3 mm 1 m/s 634 mmHg 92%
    20:00 +15°C° 0.8 mm 1 m/s 635 mmHg 94%
    21:00 +14°C° 0.8 mm 1 m/s 635 mmHg 95%
    22:00 +13°C° 0.8 mm 1 m/s 635 mmHg 97%
    23:00 +12°C° 0.2 mm 0 m/s 635 mmHg 97%
    Arată mai mult